User: anonymous   Login
Location: Newark
(34.1333°N, 7.9667°W)
Time: 20:53:55
(UTC+00:00)
Language:

AO-85 - Orbit

View from above orbital plane
View from above orbital plane
View from above satellite
View from above satellite

Ground track
Ground track

The orbit data is extracted from the following two-line orbital elements,

1 40967U 15058D   23004.02724969  .00003356  00000-0  37970-3 0  5782
2 40967  64.7736 181.2404 0169043 132.3061 229.2561 14.78344380 90301
Epoch (UTC): 04 January 2023 00:39:14
Eccentricity: 0.0169043
inclination: 64.7736°
perigee height: 516 km
apogee height: 753 km
right ascension of ascending node: 181.2404°
argument of perigee: 132.3061°
revolutions per day: 14.78344380
mean anomaly at epoch: 229.2561°
orbit number at epoch: 9030

The dashed part of the orbit path shows where the satellite is in the earth's shadow,  

DLR